FW7016 Weather Reports


Display with metric or nautical units.
time (UTC)temp
F
wind
direction
speed
MPH
gust
MPH
rain 1hr
in
rain 24hr
in
rain mn
in
humidity
%
barometer
mb
20260901222445 81 230 9.0 10.0 0.00 0.00 0.00 44 1018.8
20260901221941 82 185 9.0 10.0 0.00 0.00 0.00 37 1018.8
20260901221437 82 220 8.0 11.0 0.00 0.00 0.00 38 1018.7
20260901220937 82 183 11.0 14.0 0.00 0.00 0.00 37 1018.9
20260901220436 82 215 10.0 15.0 0.00 0.00 0.00 40 1018.9
20260901215935 80 200 9.0 11.0 0.00 0.00 0.00 39 1019.0
20260901215433 82 223 8.0 13.0 0.00 0.00 0.00 41 1018.8
20260901214932 82 221 9.0 11.0 0.00 0.00 0.00 38 1018.9
20260901214431 81 212 12.0 16.0 0.00 0.00 0.00 41 1019.0
20260901213926 80 213 7.0 8.0 0.00 0.00 0.00 42 1018.9
20260901213421 80 222 7.0 9.0 0.00 0.00 0.00 40 1018.9
20260901212920 82 236 7.0 11.0 0.00 0.00 0.00 39 1019.0
20260901212415 82 234 11.0 13.0 0.00 0.00 0.00 33 1018.9
20260901211912 82 249 10.0 16.0 0.00 0.00 0.00 35 1019.0
20260901211407 83 267 9.0 15.0 0.00 0.00 0.00 33 1018.8
20260901210902 82 259 10.0 15.0 0.00 0.00 0.00 34 1018.9
20260901210358 81 228 9.0 14.0 0.00 0.00 0.00 35 1018.9
20260901205854 78 227 9.0 14.0 0.00 0.00 0.00 41 1019.3
20260901205349 81 241 10.0 15.0 0.00 0.00 0.00 38 1019.3
20260901204844 83 222 14.0 22.0 0.00 0.00 0.00 34 1019.4
20260901204341 83 221 9.0 14.0 0.00 0.00 0.00 31 1019.5
20260901203841 82 262 9.0 13.0 0.00 0.00 0.00 32 1019.5
20260901203340 83 222 13.0 18.0 0.00 0.00 0.00 34 1019.4
20260901202836 83 249 10.0 11.0 0.00 0.00 0.00 35 1019.4
20260901202330 81 168 6.0 10.0 0.00 0.00 0.00 37 1019.1
20260901201827 81 227 11.0 17.0 0.00 0.00 0.00 33 1019.5
20260901201326 81 251 13.0 18.0 0.00 0.00 0.00 35 1019.5
20260901200820 82 299 11.0 18.0 0.00 0.00 0.00 32 1019.3
20260901200316 82 223 9.0 13.0 0.00 0.00 0.00 32 1019.5
20260901195814 82 233 9.0 14.0 0.00 0.00 0.00 32 1019.9
20260901195307 82 233 15.0 18.0 0.00 0.00 0.00 35 1019.7
20260901194803 82 264 9.0 18.0 0.00 0.00 0.00 33 1019.5
20260901194257 82 305 17.0 22.0 0.00 0.00 0.00 32 1019.6
20260901193754 82 259 9.0 13.0 0.00 0.00 0.00 35 1019.7
20260901193253 82 267 15.0 20.0 0.00 0.00 0.00 36 1019.9
20260901192753 82 251 13.0 20.0 0.00 0.00 0.00 36 1019.6
20260901192248 82 254 9.0 18.0 0.00 0.00 0.00 38 1019.6
20260901191744 82 236 11.0 22.0 0.00 0.00 0.00 37 1019.9
20260901191240 82 257 12.0 16.0 0.00 0.00 0.00 34 1019.6
20260901190736 80 261 10.0 14.0 0.00 0.00 0.00 35 1019.7
20260901190236 80 249 15.0 18.0 0.00 0.00 0.00 36 1019.7
20260901185734 80 245 9.0 13.0 0.00 0.00 0.00 37 1020.0
20260901185233 80 224 10.0 14.0 0.00 0.00 0.00 38 1020.0
20260901184729 80 272 9.0 13.0 0.00 0.00 0.00 40 1020.2
20260901184224 80 275 9.0 13.0 0.00 0.00 0.00 39 1020.2
20260901183720 80 235 13.0 18.0 0.00 0.00 0.00 37 1020.2
20260901183219 79 232 8.0 13.0 0.00 0.00 0.00 41 1020.4
20260901182716 78 225 7.0 17.0 0.00 0.00 0.00 37 1020.3
20260901182214 79 230 9.0 14.0 0.00 0.00 0.00 38 1020.6
20260901181710 79 247 7.0 16.0 0.00 0.00 0.00 39 1020.4
20260901181204 79 225 6.0 11.0 0.00 0.00 0.00 39 1020.7
20260901180703 78 242 10.0 15.0 0.00 0.00 0.00 41 1020.7
20260901180157 79 251 12.0 20.0 0.00 0.00 0.00 39 1020.8
20260901175657 79 237 11.0 15.0 0.00 0.00 0.00 39 1021.0
20260901175156 79 223 16.0 20.0 0.00 0.00 0.00 37 1020.8
20260901174652 78 269 11.0 22.0 0.00 0.00 0.00 38 1020.8
20260901174148 78 248 11.0 24.0 0.00 0.00 0.00 40 1020.8
20260901173643 78 250 13.0 18.0 0.00 0.00 0.00 40 1020.9
20260901173138 77 248 12.0 35.0 0.00 0.00 0.00 40 1020.9
20260901172634 77 290 13.0 17.0 0.00 0.00 0.00 40 1021.0
20260901172132 77 266 9.0 15.0 0.00 0.00 0.00 42 1020.9
20260901171632 76 238 17.0 21.0 0.00 0.00 0.00 40 1021.2
20260901171131 76 272 10.0 13.0 0.00 0.00 0.00 45 1021.2
20260901170631 75 249 14.0 27.0 0.00 0.00 0.00 43 1021.0
20260901170126 75 208 8.0 18.0 0.00 0.00 0.00 46 1021.2
20260901165625 74 211 9.0 16.0 0.00 0.00 0.00 48 1021.2
20260901165120 73 247 10.0 14.0 0.00 0.00 0.00 49 1020.9
20260901164615 71 275 9.0 11.0 0.00 0.00 0.00 51 1020.8
20260901164105 70 259 10.0 11.0 0.00 0.00 0.00 52 1020.9
20260901163601 70 260 9.0 11.0 0.00 0.00 0.00 53 1021.2
20260901163059 70 251 9.0 13.0 0.00 0.00 0.00 54 1021.2
20260901162555 70 252 8.0 15.0 0.00 0.00 0.00 55 1021.4
20260901162054 70 245 9.0 15.0 0.00 0.00 0.00 53 1021.3
20260901161553 70 266 6.0 10.0 0.00 0.00 0.00 55 1021.2
20260901161053 70 257 11.0 15.0 0.00 0.00 0.00 52 1021.0
20260901160550 70 239 7.0 13.0 0.00 0.00 0.00 56 1021.2
20260901160044 70 283 11.0 18.0 0.00 0.00 0.00 53 1021.2
20260901155543 70 251 9.0 16.0 0.00 0.00 0.00 54 1021.5
20260901155039 71 261 14.0 17.0 0.00 0.00 0.00 52 1021.0
20260901154538 70 272 12.0 17.0 0.00 0.00 0.00 52 1021.2
20260901154028 71 228 17.0 21.0 0.00 0.00 0.00 53 1021.0
20260901153522 71 252 12.0 21.0 0.00 0.00 0.00 52 1021.3
20260901153017 72 267 12.0 20.0 0.00 0.00 0.00 51 1021.2
20260901152517 72 277 14.0 29.0 0.00 0.00 0.00 50 1021.4
20260901152017 72 250 11.0 22.0 0.00 0.00 0.00 52 1021.0
20260901151512 72 260 15.0 20.0 0.00 0.00 0.00 51 1021.2
20260901151011 72 267 18.0 18.0 0.00 0.00 0.00 52 1021.0
20260901150509 71 268 11.0 16.0 0.00 0.00 0.00 56 1021.2
20260901150008 70 221 12.0 20.0 0.00 0.00 0.00 56 1021.2
20260901145506 69 237 11.0 14.0 0.00 0.00 0.00 60 1021.5
20260901145001 69 265 8.0 13.0 0.00 0.00 0.00 62 1021.2
20260901144456 68 236 8.0 10.0 0.00 0.00 0.00 63 1021.3
20260901143951 67 239 3.0 8.0 0.00 0.00 0.00 67 1021.3
20260901143448 67 237 7.0 10.0 0.00 0.00 0.00 67 1021.4
20260901142944 66 235 6.0 7.0 0.00 0.00 0.00 68 1021.0
20260901142443 65 244 4.0 7.0 0.00 0.00 0.00 71 1021.2
20260901141938 65 240 4.0 7.0 0.00 0.00 0.00 70 1021.0
20260901141433 64 236 4.0 6.0 0.00 0.00 0.00 72 1021.3
20260901140928 64 219 5.0 7.0 0.00 0.00 0.00 72 1021.2
20260901140425 64 290 5.0 8.0 0.00 0.00 0.00 72 1021.3
20260901135920 63 204 7.0 8.0 0.00 0.00 0.00 73 1021.0
20260901135415 62 259 6.0 9.0 0.00 0.00 0.00 74 1021.2
20260901134912 61 252 5.0 6.0 0.00 0.00 0.00 76 1021.0
20260901134407 60 209 3.0 6.0 0.00 0.00 0.00 78 1020.9
20260901133906 60 231 4.0 5.0 0.00 0.00 0.00 79 1020.9
20260901133400 60 221 4.0 5.0 0.00 0.00 0.00 81 1020.9
20260901132859 60 206 2.0 2.0 0.00 0.00 0.00 82 1021.0
20260901132354 60 216 2.0 3.0 0.00 0.00 0.00 81 1021.0
20260901131853 60 229 3.0 5.0 0.00 0.00 0.00 79 1020.7
20260901131352 60 222 2.0 5.0 0.00 0.00 0.00 78 1020.7
20260901130847 60 203 5.0 6.0 0.00 0.00 0.00 77 1020.6
20260901130343 60 249 4.0 7.0 0.00 0.00 0.00 78 1020.9
20260901125840 60 241 3.0 5.0 0.00 0.00 0.00 79 1021.0
20260901125339 60 202 3.0 5.0 0.00 0.00 0.00 79 1020.8
20260901124835 60 257 4.0 6.0 0.00 0.00 0.00 77 1020.8
20260901124330 60 249 5.0 7.0 0.00 0.00 0.00 77 1020.8
20260901123829 61 217 3.0 6.0 0.00 0.00 0.00 76 1020.9
20260901123325 61 244 4.0 7.0 0.00 0.00 0.00 76 1020.6
20260901122823 61 243 5.0 6.0 0.00 0.00 0.00 76 1020.6
20260901122318 60 259 3.0 7.0 0.00 0.00 0.00 77 1020.8
20260901121817 60 240 5.0 7.0 0.00 0.00 0.00 77 1020.3
20260901121312 60 213 3.0 5.0 0.00 0.00 0.00 77 1020.3
20260901120812 60 211 2.0 3.0 0.00 0.00 0.00 77 1020.6
20260901120307 60 246 3.0 6.0 0.00 0.00 0.00 77 1020.2
20260901115803 60 221 4.0 6.0 0.00 0.00 0.00 77 1020.1
20260901115258 60 230 6.0 7.0 0.00 0.00 0.00 77 1020.2
20260901114755 60 221 5.0 7.0 0.00 0.00 0.00 77 1020.1
20260901114250 59 245 4.0 7.0 0.00 0.00 0.00 79 1020.1
20260901113748 59 229 3.0 5.0 0.00 0.00 0.00 80 1019.9
20260901113243 59 191 3.0 5.0 0.00 0.00 0.00 81 1019.9
20260901112738 59 217 3.0 5.0 0.00 0.00 0.00 81 1020.1
20260901112237 59 222 3.0 5.0 0.00 0.00 0.00 80 1020.1
20260901111732 59 232 4.0 5.0 0.00 0.00 0.00 80 1020.0
20260901111231 59 218 4.0 5.0 0.00 0.00 0.00 80 1020.1
20260901110726 59 220 3.0 5.0 0.00 0.00 0.00 79 1020.0
20260901110221 59 219 4.0 6.0 0.00 0.00 0.00 79 1020.2
20260901105718 60 260 5.0 7.0 0.00 0.00 0.00 78 1020.1
20260901105217 60 224 5.0 8.0 0.00 0.00 0.00 77 1020.1
20260901104713 60 235 6.0 7.0 0.00 0.00 0.00 77 1020.1
20260901104209 59 239 5.0 7.0 0.00 0.00 0.00 78 1020.2
20260901103708 60 241 5.0 6.0 0.00 0.00 0.00 78 1020.0
20260901103203 60 238 4.0 6.0 0.00 0.00 0.00 77 1020.2
20260901102658 60 222 4.0 6.0 0.00 0.00 0.00 76 1020.3
20260901102157 60 264 4.0 6.0 0.00 0.00 0.00 76 1020.2
20260901101653 60 263 3.0 6.0 0.00 0.00 0.00 77 1020.1
20260901101152 60 245 4.0 7.0 0.00 0.00 0.00 77 1020.4
20260901100647 60 216 3.0 5.0 0.00 0.00 0.00 78 1020.1
20260901100142 60 215 4.0 6.0 0.00 0.00 0.00 77 1020.1
20260901095640 61 235 3.0 5.0 0.00 0.00 0.00 76 1020.2
20260901095138 61 230 6.0 8.0 0.00 0.00 0.00 75 1020.4
20260901094632 62 242 7.0 8.0 0.00 0.00 0.00 75 1020.6
20260901094127 62 225 6.0 9.0 0.00 0.00 0.00 75 1020.4
20260901093622 62 237 6.0 7.0 0.00 0.00 0.00 75 1020.4
20260901093121 62 204 5.0 6.0 0.00 0.00 0.00 75 1020.3
20260901092617 62 218 7.0 9.0 0.00 0.00 0.00 75 1020.7
20260901092113 62 228 5.0 7.0 0.00 0.00 0.00 75 1020.7
20260901091609 62 237 6.0 8.0 0.00 0.00 0.00 74 1020.7
20260901091103 63 227 9.0 11.0 0.00 0.00 0.00 74 1021.3
20260901090603 63 219 9.0 9.0 0.00 0.00 0.00 74 1021.0
20260901090058 62 244 7.0 9.0 0.00 0.00 0.00 74 1021.0
20260901085553 62 210 7.0 9.0 0.00 0.00 0.00 75 1021.2
20260901085050 62 208 5.0 7.0 0.00 0.00 0.00 76 1021.2
20260901084545 62 211 4.0 6.0 0.00 0.00 0.00 76 1020.6
20260901084036 62 212 4.0 6.0 0.00 0.00 0.00 77 1021.4
20260901083536 62 217 5.0 7.0 0.00 0.00 0.00 75 1021.3
20260901083034 63 222 8.0 10.0 0.00 0.00 0.00 74 1021.5
20260901082529 62 217 9.0 11.0 0.00 0.00 0.00 74 1021.6
20260901082025 62 219 9.0 13.0 0.00 0.00 0.00 75 1021.5
20260901081520 62 223 10.0 11.0 0.00 0.00 0.00 75 1021.6
20260901081014 63 223 9.0 11.0 0.00 0.00 0.00 75 1021.7
20260901080514 63 234 9.0 14.0 0.00 0.00 0.00 74 1021.6
20260901080013 63 237 11.0 14.0 0.00 0.00 0.00 73 1021.7
20260901075509 63 233 11.0 15.0 0.00 0.00 0.00 73 1021.7
20260901075008 63 230 9.0 11.0 0.00 0.00 0.00 74 1021.3
20260901074503 63 235 7.0 10.0 0.00 0.00 0.00 73 1021.7
20260901073958 62 217 7.0 11.0 0.00 0.00 0.00 73 1021.3
20260901073455 62 225 7.0 8.0 0.00 0.00 0.00 76 1021.3
20260901072955 61 226 7.0 9.0 0.00 0.00 0.00 77 1021.2
20260901072450 61 215 7.0 9.0 0.00 0.00 0.00 77 1021.3
20260901071944 61 220 6.0 8.0 0.00 0.00 0.00 78 1021.6
20260901071443 61 216 6.0 8.0 0.00 0.00 0.00 79 1021.5
20260901070938 60 212 6.0 7.0 0.00 0.00 0.00 79 1021.3
20260901070433 60 204 6.0 7.0 0.00 0.00 0.00 80 1021.3
20260901065931 60 217 6.0 7.0 0.00 0.00 0.00 79 1021.2
20260901065427 60 213 7.0 8.0 0.00 0.00 0.00 79 1021.4
20260901064922 60 206 4.0 5.0 0.00 0.00 0.00 80 1021.3
20260901064419 60 202 3.0 5.0 0.00 0.00 0.00 81 1021.3
20260901063916 60 209 3.0 3.0 0.00 0.00 0.00 81 1021.6
20260901063412 61 212 3.0 3.0 0.00 0.00 0.00 80 1021.4
20260901062908 62 228 5.0 6.0 0.00 0.00 0.00 78 1021.4
20260901062403 62 192 4.0 6.0 0.00 0.00 0.00 76 1021.4
20260901061859 63 214 7.0 10.0 0.00 0.00 0.00 76 1021.6
20260901061354 63 218 6.0 7.0 0.00 0.00 0.00 73 1021.9
20260901060849 64 197 8.0 11.0 0.00 0.00 0.00 72 1021.7
20260901060345 64 166 10.0 13.0 0.00 0.00 0.00 71 1021.9
20260901055844 64 179 12.0 14.0 0.00 0.00 0.00 72 1022.2
20260901055341 65 174 14.0 16.0 0.00 0.00 0.00 71 1022.0
20260901054837 66 181 11.0 14.0 0.00 0.00 0.00 64 1022.0
20260901054334 66 162 12.0 18.0 0.00 0.00 0.00 64 1022.3
20260901053825 67 191 15.0 18.0 0.00 0.00 0.00 63 1022.5
20260901053324 67 195 15.0 22.0 0.00 0.00 0.00 62 1022.5
20260901052821 68 178 15.0 22.0 0.00 0.00 0.00 60 1022.3
20260901052316 68 165 19.0 24.0 0.00 0.00 0.00 60 1022.5
20260901051814 68 176 10.0 20.0 0.00 0.00 0.00 59 1022.5
20260901051310 68 168 15.0 21.0 0.00 0.00 0.00 57 1022.6
20260901050805 67 160 6.0 7.0 0.00 0.00 0.00 61 1022.7
20260901050300 67 161 9.0 14.0 0.00 0.00 0.00 60 1022.5
20260901045750 66 166 0.0 1.0 0.00 0.00 0.00 64 1021.9
20260901045244 67 204 0.0 0.0 0.00 0.00 0.00 63 1022.2
20260901044740 67 215 3.0 5.0 0.00 0.00 0.00 61 1022.1
20260901044236 68 212 0.0 0.0 0.00 0.00 0.00 61 1022.0
20260901043731 67 208 0.0 0.0 0.00 0.00 0.00 60 1021.9
20260901043227 68 208 0.0 0.0 0.00 0.00 0.00 61 1021.6
20260901042727 67 274 4.0 6.0 0.00 0.00 0.00 62 1021.7
20260901042226 67 203 1.0 2.0 0.00 0.00 0.00 63 1021.6
20260901041723 67 222 0.0 3.0 0.00 0.00 0.00 62 1021.6
20260901041222 67 225 0.0 3.0 0.00 0.00 0.00 62 1022.0
20260901040717 66 220 0.0 0.0 0.00 0.00 0.00 62 1021.7
20260901040217 66 207 0.0 0.0 0.00 0.00 0.00 65 1022.0
20260901035715 66 181 0.0 2.0 0.00 0.00 0.00 65 1022.0
20260901035214 66 204 0.0 0.0 0.00 0.00 0.00 64 1021.9
20260901034713 67 218 1.0 3.0 0.00 0.00 0.00 63 1021.7
20260901034209 67 220 4.0 5.0 0.00 0.00 0.00 62 1021.9
20260901033708 67 221 1.0 5.0 0.00 0.00 0.00 61 1021.7
20260901033207 68 225 0.0 0.0 0.00 0.00 0.00 60 1021.7
20260901032706 68 232 0.0 3.0 0.00 0.00 0.00 59 1021.6
20260901032201 68 223 0.0 5.0 0.00 0.00 0.00 59 1021.7
20260901031656 68 232 5.0 6.0 0.00 0.00 0.00 58 1021.7
20260901031152 69 232 5.0 7.0 0.00 0.00 0.00 58 1022.0
20260901030647 69 237 6.0 8.0 0.00 0.00 0.00 56 1021.6
20260901030141 69 238 7.0 8.0 0.00 0.00 0.00 55 1021.6
20260901025641 70 241 7.0 8.0 0.00 0.00 0.00 55 1021.6
20260901025136 70 246 7.0 9.0 0.00 0.00 0.00 54 1021.6
20260901024630 71 226 7.0 10.0 0.00 0.00 0.00 53 1021.6
20260901024129 70 239 8.0 13.0 0.00 0.00 0.00 49 1021.5
20260901023629 68 230 7.0 9.0 0.00 0.00 0.00 56 1021.3
20260901023123 68 218 5.0 6.0 0.00 0.00 0.00 60 1021.2
20260901022619 68 227 4.0 6.0 0.00 0.00 0.00 60 1021.3
20260901022114 69 223 4.0 5.0 0.00 0.00 0.00 59 1020.8
20260901021609 70 218 5.0 7.0 0.00 0.00 0.00 56 1021.0
20260901021104 70 217 7.0 8.0 0.00 0.00 0.00 54 1021.0
20260901020600 70 211 7.0 8.0 0.00 0.00 0.00 54 1021.0
20260901020055 71 220 7.0 8.0 0.00 0.00 0.00 52 1020.8
20260901015551 72 216 7.0 8.0 0.00 0.00 0.00 51 1020.9
20260901015050 72 216 8.0 9.0 0.00 0.00 0.00 49 1020.9
20260901014545 73 217 9.0 9.0 0.00 0.00 0.00 49 1021.0
20260901014042 73 203 7.0 8.0 0.00 0.00 0.00 49 1020.7
20260901013537 73 210 7.0 9.0 0.00 0.00 0.00 47 1021.0
20260901013033 73 218 6.0 7.0 0.00 0.00 0.00 48 1020.9
20260901012532 73 210 7.0 8.0 0.00 0.00 0.00 48 1020.7
20260901012028 73 221 7.0 8.0 0.00 0.00 0.00 47 1020.9
20260901011524 74 204 6.0 9.0 0.00 0.00 0.00 47 1020.8
20260901011021 74 205 4.0 7.0 0.00 0.00 0.00 47 1020.6
20260901010517 75 204 5.0 6.0 0.00 0.00 0.00 47 1021.0
20260901010016 75 198 4.0 7.0 0.00 0.00 0.00 46 1020.8
20260901005516 74 202 0.0 3.0 0.00 0.00 0.00 52 1021.0
20260901005011 75 200 3.0 3.0 0.00 0.00 0.00 52 1020.8
20260901004506 76 188 3.0 3.0 0.00 0.00 0.00 48 1020.6
20260901004000 76 191 3.0 5.0 0.00 0.00 0.00 46 1020.6
20260901003455 76 196 0.0 3.0 0.00 0.00 0.00 48 1020.8
20260901002954 77 198 0.0 3.0 0.00 0.00 0.00 46 1020.7
20260901002453 76 187 3.0 5.0 0.00 0.00 0.00 44 1020.9
20260901001948 75 199 3.0 3.0 0.00 0.00 0.00 46 1020.8
20260901001443 74 193 3.0 3.0 0.00 0.00 0.00 51 1020.7
20260901000938 73 192 3.0 5.0 0.00 0.00 0.00 52 1020.8
20260901000435 75 211 3.0 5.0 0.00 0.00 0.00 51 1020.6
20260831235932 75 218 3.0 5.0 0.00 0.00 0.00 49 1020.8
20260831235428 75 199 4.0 6.0 0.00 0.00 0.00 47 1020.8
20260831234923 74 197 4.0 6.0 0.00 0.00 0.00 48 1020.8
20260831234418 75 202 5.0 6.0 0.00 0.00 0.00 49 1020.6
20260831233913 75 213 5.0 6.0 0.00 0.00 0.00 48 1020.7
20260831233408 75 214 5.0 7.0 0.00 0.00 0.00 48 1020.6
20260831232903 75 198 5.0 6.0 0.00 0.00 0.00 47 1020.7
20260831232359 76 209 5.0 7.0 0.00 0.00 0.00 46 1020.7
20260831231855 77 214 5.0 7.0 0.00 0.00 0.00 44 1020.7
20260831231351 78 222 5.0 7.0 0.00 0.00 0.00 40 1020.8
20260831230847 77 202 7.0 9.0 0.00 0.00 0.00 37 1020.9
20260831230341 80 208 5.0 7.0 0.00 0.00 0.00 40 1020.4
20260831225841 81 168 7.0 8.0 0.00 0.00 0.00 38 1020.7
20260831225336 80 194 3.0 6.0 0.00 0.00 0.00 44 1020.6
20260831224832 82 242 7.0 9.0 0.00 0.00 0.00 43 1020.7
20260831224326 81 192 6.0 8.0 0.00 0.00 0.00 35 1020.3
20260831223821 81 211 7.0 11.0 0.00 0.00 0.00 36 1020.4
20260831223318 83 229 4.0 6.0 0.00 0.00 0.00 36 1020.6